Home   Weather   Ecatepec   Past weeks
Flag for Mexico

Past Weather in Ecatepec, México, Mexico — Yesterday and Last 2 Weeks

Now
66 °F

Broken clouds.


Feels Like: 66 °F
Forecast: 69 / 58 °F
Wind: 7 mph from North

Location: Mexico City / Licenci

Current Time: Oct 22, 2019 at 11:29:51 am

Latest Report: Oct 22, 2019 at 10:46 am


Visibility: 8 mi

Pressure: 30.39 "Hg (23.36 "Hg at 2250m altitude)

Humidity: 60%

Dew Point: 52 °F

Location of EcatepecLocation

Past Weather in Ecatepec — Graph

°F

Ecatepec Temperature Yesterday

Maximum temperature yesterday: 75 °F (at 12:52 pm)
Minimum temperature yesterday: 59 °F (at 3:49 am)
Average temperature yesterday: 67 °F

High & Low Weather Summary for the Past Weeks

 TemperatureHumidityPressure
High81 °F (Oct 11, 4:51 pm)100% (Oct 17, 9:38 pm)30.38 "Hg (Oct 17, 9:38 pm)
Low54 °F (Oct 13, 6:54 am)21% (Oct 14, 3:47 pm)29.59 "Hg (Oct 14, 3:47 pm)
Average66 °F62%30.12 "Hg
* Reported Oct 7 9:48 am — Oct 22 9:45 am, Ecatepec. Weather by CustomWeather, © 2019

Note: Actual official high and low records may vary slightly from our data, if they occured in-between our weather recording intervals... More about our weather records

Advertising

Ecatepec Weather History for the Previous 24 Hours

Scroll right to see more
 ConditionsComfort  
Time TempWeatherWind HumidityBarometerVisibility
9:45 am
Tue, Oct 22
64 °FBroken clouds.7 mph64%29.88 "Hg7 mi
8:45 am61 °FBroken clouds.7 mph83%30.37 "Hg6 mi
7:46 am61 °FBroken clouds.5 mph77%30.34 "Hg5 mi
6:53 am59 °FPassing clouds.6 mph82%29.82 "Hg5 mi
5:49 am59 °FPassing clouds.5 mph82%30.31 "Hg6 mi
4:42 am61 °FPartly cloudy.3 mph83%30.32 "Hg6 mi
3:44 am61 °FPassing clouds.2 mph83%29.80 "Hg6 mi
2:46 am61 °FPassing clouds.3 mph83%30.34 "Hg7 mi
1:46 am63 °FPartly cloudy.6 mph73%30.35 "Hg7 mi
12:48 am63 °FPartly cloudy.7 mph68%29.78 "Hg7 mi
11:47 pm
Mon, Oct 21
64 °FPartly cloudy.9 mph68%30.35 "Hg7 mi
10:50 pm64 °FPartly cloudy.7 mph68%30.34 "Hg7 mi
9:50 pm66 °FPassing clouds.2 mph56%29.79 "Hg7 mi
8:44 pm68 °FPassing clouds.7 mph56%30.29 "Hg10 mi
7:46 pm68 °FPartly cloudy.7 mph56%30.26 "Hg10 mi
6:58 pm68 °FMild.8 mph53%29.73 "Hg10 mi
5:49 pm72 °FMostly cloudy.12 mph47%30.20 "Hg10 mi
4:47 pm73 °FMostly cloudy.16 mph44%30.19 "Hg10 mi
4:13 pm73 °FThundershowers. Mostly cloudy.13 mph47%30.21 "Hg10 mi
3:50 pm73 °FMostly cloudy.14 mph47%29.70 "Hg10 mi
3:33 pm73 °FPartly sunny.14 mph47%30.21 "Hg10 mi
2:46 pm75 °FPartly sunny.No wind39%30.23 "Hg10 mi
1:45 pm75 °FScattered clouds.3 mph39%30.26 "Hg10 mi
12:52 pm75 °FScattered clouds.No wind44%29.74 "Hg10 mi
11:45 am73 °FScattered clouds.3 mph41%30.30 "Hg10 mi
11:39 am73 °FScattered clouds.3 mph41%30.30 "Hg10 mi
Weather by CustomWeather, © 2019

See weather overview